Year,Month,Day,Hour,Minute,Value (Times are PST for insolation in W/m^2)
2009,05,08,00,00,0.00
2009,05,08,00,01,0.00
2009,05,08,00,02,0.00
2009,05,08,00,03,0.00
2009,05,08,00,04,0.00
2009,05,08,00,05,0.00
2009,05,08,00,06,0.00
2009,05,08,00,07,0.00
2009,05,08,00,08,0.00
2009,05,08,00,09,0.00
2009,05,08,00,10,0.00
2009,05,08,00,11,0.00
2009,05,08,00,12,0.00
2009,05,08,00,13,0.00
2009,05,08,00,14,0.00
2009,05,08,00,15,0.00
2009,05,08,00,16,0.00
2009,05,08,00,17,0.00
2009,05,08,00,18,0.00
2009,05,08,00,19,0.00
2009,05,08,00,20,0.00
2009,05,08,00,21,0.00
2009,05,08,00,22,0.00
2009,05,08,00,23,0.00
2009,05,08,00,24,0.00
2009,05,08,00,25,0.00
2009,05,08,00,26,0.00
2009,05,08,00,27,0.00
2009,05,08,00,28,0.00
2009,05,08,00,29,0.00
2009,05,08,00,30,0.00
2009,05,08,00,31,0.00
2009,05,08,00,32,0.00
2009,05,08,00,33,0.00
2009,05,08,00,34,0.00
2009,05,08,00,35,0.00
2009,05,08,00,36,0.00
2009,05,08,00,37,0.00
2009,05,08,00,38,0.00
2009,05,08,00,39,0.00
2009,05,08,00,40,0.00
2009,05,08,00,41,0.00
2009,05,08,00,42,0.00
2009,05,08,00,43,0.00
2009,05,08,00,44,0.00
2009,05,08,00,45,0.00
2009,05,08,00,46,0.00
2009,05,08,00,47,0.00
2009,05,08,00,48,0.00
2009,05,08,00,49,0.00
2009,05,08,00,50,0.00
2009,05,08,00,51,0.00
2009,05,08,00,52,0.00
2009,05,08,00,53,0.00
2009,05,08,00,54,0.00
2009,05,08,00,55,0.00
2009,05,08,00,56,0.00
2009,05,08,00,57,0.00
2009,05,08,00,58,0.00
2009,05,08,00,59,0.00
2009,05,08,01,00,0.00
2009,05,08,01,01,0.00
2009,05,08,01,02,0.00
2009,05,08,01,03,0.00
2009,05,08,01,04,0.00
2009,05,08,01,05,0.00
2009,05,08,01,06,0.00
2009,05,08,01,07,0.00
2009,05,08,01,08,0.00
2009,05,08,01,09,0.00
2009,05,08,01,10,0.00
2009,05,08,01,11,0.00
2009,05,08,01,12,0.00
2009,05,08,01,13,0.00
2009,05,08,01,14,0.00
2009,05,08,01,15,0.00
2009,05,08,01,16,0.00
2009,05,08,01,17,0.00
2009,05,08,01,18,0.00
2009,05,08,01,19,0.00
2009,05,08,01,20,0.00
2009,05,08,01,21,0.00
2009,05,08,01,22,0.00
2009,05,08,01,23,0.00
2009,05,08,01,24,0.00
2009,05,08,01,25,0.00
2009,05,08,01,26,0.00
2009,05,08,01,27,0.00
2009,05,08,01,28,0.00
2009,05,08,01,29,0.00
2009,05,08,01,30,0.00
2009,05,08,01,31,0.00
2009,05,08,01,32,0.00
2009,05,08,01,33,0.00
2009,05,08,01,34,0.00
2009,05,08,01,35,0.00
2009,05,08,01,36,0.00
2009,05,08,01,37,0.00
2009,05,08,01,38,0.00
2009,05,08,01,39,0.00
2009,05,08,01,40,0.00
2009,05,08,01,41,0.00
2009,05,08,01,42,0.00
2009,05,08,01,43,0.00
2009,05,08,01,44,0.00
2009,05,08,01,45,0.00
2009,05,08,01,46,0.00
2009,05,08,01,47,0.00
2009,05,08,01,48,0.00
2009,05,08,01,49,0.00
2009,05,08,01,50,0.00
2009,05,08,01,51,0.00
2009,05,08,01,52,0.00
2009,05,08,01,53,0.00
2009,05,08,01,54,0.00
2009,05,08,01,55,0.00
2009,05,08,01,56,0.00
2009,05,08,01,57,0.00
2009,05,08,01,58,0.00
2009,05,08,01,59,0.00
2009,05,08,02,00,0.00
2009,05,08,02,01,0.00
2009,05,08,02,02,0.00
2009,05,08,02,03,0.00
2009,05,08,02,04,0.00
2009,05,08,02,05,0.00
2009,05,08,02,06,0.00
2009,05,08,02,07,0.00
2009,05,08,02,08,0.00
2009,05,08,02,09,0.00
2009,05,08,02,10,0.00
2009,05,08,02,11,0.00
2009,05,08,02,12,0.00
2009,05,08,02,13,0.00
2009,05,08,02,14,0.00
2009,05,08,02,15,0.00
2009,05,08,02,16,0.00
2009,05,08,02,17,0.00
2009,05,08,02,18,0.00
2009,05,08,02,19,0.00
2009,05,08,02,20,0.00
2009,05,08,02,21,0.00
2009,05,08,02,22,0.00
2009,05,08,02,23,0.00
2009,05,08,02,24,0.00
2009,05,08,02,25,0.00
2009,05,08,02,26,0.00
2009,05,08,02,27,0.00
2009,05,08,02,28,0.00
2009,05,08,02,29,0.00
2009,05,08,02,30,0.00
2009,05,08,02,31,0.00
2009,05,08,02,32,0.00
2009,05,08,02,33,0.00
2009,05,08,02,34,0.00
2009,05,08,02,35,0.00
2009,05,08,02,36,0.00
2009,05,08,02,37,0.00
2009,05,08,02,38,0.00
2009,05,08,02,39,0.00
2009,05,08,02,40,0.00
2009,05,08,02,41,0.00
2009,05,08,02,42,0.00
2009,05,08,02,43,0.00
2009,05,08,02,44,0.00
2009,05,08,02,45,0.00
2009,05,08,02,46,0.00
2009,05,08,02,47,0.00
2009,05,08,02,48,0.00
2009,05,08,02,49,0.00
2009,05,08,02,50,0.00
2009,05,08,02,51,0.00
2009,05,08,02,52,0.00
2009,05,08,02,53,0.00
2009,05,08,02,54,0.00
2009,05,08,02,55,0.00
2009,05,08,02,56,0.00
2009,05,08,02,57,0.00
2009,05,08,02,58,0.00
2009,05,08,02,59,0.00
2009,05,08,03,00,0.00
2009,05,08,03,01,0.00
2009,05,08,03,02,0.00
2009,05,08,03,03,0.00
2009,05,08,03,04,0.00
2009,05,08,03,05,0.00
2009,05,08,03,06,0.00
2009,05,08,03,07,0.00
2009,05,08,03,08,0.00
2009,05,08,03,09,0.00
2009,05,08,03,10,0.00
2009,05,08,03,11,0.00
2009,05,08,03,12,0.00
2009,05,08,03,13,0.00
2009,05,08,03,14,0.00
2009,05,08,03,15,0.00
2009,05,08,03,16,0.00
2009,05,08,03,17,0.00
2009,05,08,03,18,0.00
2009,05,08,03,19,0.00
2009,05,08,03,20,0.00
2009,05,08,03,21,0.00
2009,05,08,03,22,0.00
2009,05,08,03,23,0.00
2009,05,08,03,24,0.00
2009,05,08,03,25,0.00
2009,05,08,03,26,0.00
2009,05,08,03,27,0.00
2009,05,08,03,28,0.00
2009,05,08,03,29,0.00
2009,05,08,03,30,0.00
2009,05,08,03,31,0.00
2009,05,08,03,32,0.00
2009,05,08,03,33,0.00
2009,05,08,03,34,0.00
2009,05,08,03,35,0.00
2009,05,08,03,36,0.00
2009,05,08,03,37,0.00
2009,05,08,03,38,0.00
2009,05,08,03,39,0.00
2009,05,08,03,40,0.00
2009,05,08,03,41,0.00
2009,05,08,03,42,0.00
2009,05,08,03,43,0.00
2009,05,08,03,44,0.00
2009,05,08,03,45,0.00
2009,05,08,03,46,0.00
2009,05,08,03,47,0.00
2009,05,08,03,48,0.00
2009,05,08,03,49,0.00
2009,05,08,03,50,0.00
2009,05,08,03,51,0.00
2009,05,08,03,52,0.00
2009,05,08,03,53,0.00
2009,05,08,03,54,0.00
2009,05,08,03,55,0.00
2009,05,08,03,56,0.00
2009,05,08,03,57,0.00
2009,05,08,03,58,0.00
2009,05,08,03,59,0.00
2009,05,08,04,00,0.00
2009,05,08,04,01,0.00
2009,05,08,04,02,0.00
2009,05,08,04,03,0.00
2009,05,08,04,05,0.00
2009,05,08,04,06,0.00
2009,05,08,04,07,0.00
2009,05,08,04,08,0.00
2009,05,08,04,09,0.00
2009,05,08,04,10,0.00
2009,05,08,04,11,0.00
2009,05,08,04,12,0.00
2009,05,08,04,13,0.00
2009,05,08,04,14,0.00
2009,05,08,04,15,0.00
2009,05,08,04,16,0.00
2009,05,08,04,17,0.00
2009,05,08,04,18,0.00
2009,05,08,04,19,0.00
2009,05,08,04,20,0.00
2009,05,08,04,21,0.00
2009,05,08,04,22,0.00
2009,05,08,04,23,0.00
2009,05,08,04,24,0.00
2009,05,08,04,25,0.00
2009,05,08,04,26,0.00
2009,05,08,04,27,0.00
2009,05,08,04,28,0.00
2009,05,08,04,29,0.00
2009,05,08,04,30,0.00
2009,05,08,04,31,0.00
2009,05,08,04,32,0.00
2009,05,08,04,33,0.00
2009,05,08,04,34,0.00
2009,05,08,04,35,0.00
2009,05,08,04,36,0.00
2009,05,08,04,37,0.00
2009,05,08,04,38,0.00
2009,05,08,04,39,0.00
2009,05,08,04,40,0.00
2009,05,08,04,41,0.00
2009,05,08,04,42,0.00
2009,05,08,04,43,0.00
2009,05,08,04,44,0.00
2009,05,08,04,45,0.00
2009,05,08,04,46,0.00
2009,05,08,04,47,0.00
2009,05,08,04,48,0.00
2009,05,08,04,49,0.00
2009,05,08,04,50,0.00
2009,05,08,04,51,0.00
2009,05,08,04,52,0.00
2009,05,08,04,53,0.00
2009,05,08,04,54,0.00
2009,05,08,04,55,0.00
2009,05,08,04,56,0.00
2009,05,08,04,57,0.00
2009,05,08,04,58,0.00
2009,05,08,04,59,0.00
2009,05,08,05,00,0.00
2009,05,08,05,01,0.00
2009,05,08,05,02,0.00
2009,05,08,05,03,0.00
2009,05,08,05,04,0.00
2009,05,08,05,05,0.00
2009,05,08,05,06,0.00
2009,05,08,05,07,0.00
2009,05,08,05,08,0.00
2009,05,08,05,09,0.00
2009,05,08,05,10,0.00
2009,05,08,05,11,0.00
2009,05,08,05,12,0.00
2009,05,08,05,13,0.00
2009,05,08,05,14,0.00
2009,05,08,05,15,0.00
2009,05,08,05,16,0.00
2009,05,08,05,17,0.00
2009,05,08,05,18,0.00
2009,05,08,05,19,0.00
2009,05,08,05,20,0.00
2009,05,08,05,21,0.00
2009,05,08,05,22,0.00
2009,05,08,05,23,0.00
2009,05,08,05,24,0.00
2009,05,08,05,25,0.00
2009,05,08,05,26,0.00
2009,05,08,05,27,0.00
2009,05,08,05,28,0.00
2009,05,08,05,29,0.00
2009,05,08,05,30,0.00
2009,05,08,05,31,0.00
2009,05,08,05,32,0.00
2009,05,08,05,33,0.00
2009,05,08,05,34,0.00
2009,05,08,05,35,0.00
2009,05,08,05,36,0.00
2009,05,08,05,37,0.00
2009,05,08,05,38,0.00
2009,05,08,05,39,0.00
2009,05,08,05,40,0.00
2009,05,08,05,41,0.00
2009,05,08,05,42,0.00
2009,05,08,05,43,0.00
2009,05,08,05,44,0.00
2009,05,08,05,45,0.00
2009,05,08,05,46,0.00
2009,05,08,05,47,0.00
2009,05,08,05,48,0.00
2009,05,08,05,49,0.00
2009,05,08,05,50,0.00
2009,05,08,05,51,0.00
2009,05,08,05,52,0.00
2009,05,08,05,53,0.00
2009,05,08,05,54,0.00
2009,05,08,05,55,0.00
2009,05,08,05,56,0.00
2009,05,08,05,57,0.00
2009,05,08,05,58,1.80
2009,05,08,05,59,5.00
2009,05,08,06,00,5.00
2009,05,08,06,01,5.00
2009,05,08,06,02,5.00
2009,05,08,06,03,6.10
2009,05,08,06,04,7.00
2009,05,08,06,05,7.00
2009,05,08,06,06,7.00
2009,05,08,06,07,7.00
2009,05,08,06,08,7.00
2009,05,08,06,09,8.30
2009,05,08,06,10,9.00
2009,05,08,06,11,9.00
2009,05,08,06,12,9.00
2009,05,08,06,13,9.00
2009,05,08,06,14,9.00
2009,05,08,06,15,10.60
2009,05,08,06,16,11.00
2009,05,08,06,17,11.00
2009,05,08,06,18,11.00
2009,05,08,06,19,11.00
2009,05,08,06,20,11.00
2009,05,08,06,21,11.00
2009,05,08,06,22,11.00
2009,05,08,06,23,11.00
2009,05,08,06,24,11.00
2009,05,08,06,25,11.00
2009,05,08,06,26,11.00
2009,05,08,06,27,11.00
2009,05,08,06,28,12.00
2009,05,08,06,29,12.00
2009,05,08,06,30,12.00
2009,05,08,06,31,12.00
2009,05,08,06,32,12.20
2009,05,08,06,33,14.00
2009,05,08,06,34,14.00
2009,05,08,06,35,14.00
2009,05,08,06,36,14.00
2009,05,08,06,37,14.40
2009,05,08,06,38,16.00
2009,05,08,06,39,16.00
2009,05,08,06,40,16.00
2009,05,08,06,41,16.00
2009,05,08,06,42,16.60
2009,05,08,06,43,18.00
2009,05,08,06,44,18.00
2009,05,08,06,45,18.00
2009,05,08,06,46,18.40
2009,05,08,06,47,19.00
2009,05,08,06,48,20.00
2009,05,08,06,49,21.00
2009,05,08,06,50,21.00
2009,05,08,06,51,21.00
2009,05,08,06,52,21.00
2009,05,08,06,53,21.00
2009,05,08,06,54,21.00
2009,05,08,06,55,21.00
2009,05,08,06,56,21.00
2009,05,08,06,57,21.00
2009,05,08,06,58,21.00
2009,05,08,06,59,22.40
2009,05,08,07,00,23.00
2009,05,08,07,01,23.00
2009,05,08,07,02,23.00
2009,05,08,07,03,24.50
2009,05,08,07,04,25.00
2009,05,08,07,05,25.00
2009,05,08,07,06,25.00
2009,05,08,07,07,25.00
2009,05,08,07,08,25.90
2009,05,08,07,09,26.00
2009,05,08,07,10,26.00
2009,05,08,07,11,26.00
2009,05,08,07,12,26.00
2009,05,08,07,13,26.00
2009,05,08,07,14,28.00
2009,05,08,07,15,28.00
2009,05,08,07,16,28.00
2009,05,08,07,17,28.10
2009,05,08,07,18,30.00
2009,05,08,07,19,30.20
2009,05,08,07,20,32.00
2009,05,08,07,21,32.10
2009,05,08,07,22,33.00
2009,05,08,07,23,33.30
2009,05,08,07,24,35.00
2009,05,08,07,25,35.40
2009,05,08,07,26,37.00
2009,05,08,07,27,37.60
2009,05,08,07,28,39.30
2009,05,08,07,29,40.70
2009,05,08,07,30,42.70
2009,05,08,07,31,44.80
2009,05,08,07,32,46.00
2009,05,08,07,33,46.40
2009,05,08,07,34,47.90
2009,05,08,07,35,49.00
2009,05,08,07,36,50.00
2009,05,08,07,37,52.10
2009,05,08,07,38,53.60
2009,05,08,07,39,54.00
2009,05,08,07,40,55.20
2009,05,08,07,41,57.20
2009,05,08,07,42,59.10
2009,05,08,07,43,61.20
2009,05,08,07,44,62.70
2009,05,08,07,45,64.40
2009,05,08,07,46,66.40
2009,05,08,07,47,69.30
2009,05,08,07,48,71.40
2009,05,08,07,49,74.80
2009,05,08,07,50,76.80
2009,05,08,07,51,81.40
2009,05,08,07,52,85.20
2009,05,08,07,53,89.20
2009,05,08,07,54,92.40
2009,05,08,07,55,96.60
2009,05,08,07,56,97.80
2009,05,08,07,57,99.90
2009,05,08,07,58,104.00
2009,05,08,07,59,105.00
2009,05,08,08,00,106.90
2009,05,08,08,01,113.00
2009,05,08,08,02,118.00
2009,05,08,08,03,125.50
2009,05,08,08,04,134.30
2009,05,08,08,05,139.60
2009,05,08,08,06,144.40
2009,05,08,08,07,148.10
2009,05,08,08,08,148.80
2009,05,08,08,09,147.70
2009,05,08,08,10,145.70
2009,05,08,08,11,144.00
2009,05,08,08,12,144.40
2009,05,08,08,13,146.50
2009,05,08,08,14,148.30
2009,05,08,08,15,149.70
2009,05,08,08,16,151.00
2009,05,08,08,17,151.00
2009,05,08,08,18,151.00
2009,05,08,08,19,151.00
2009,05,08,08,20,151.80
2009,05,08,08,21,153.90
2009,05,08,08,22,156.50
2009,05,08,08,23,160.00
2009,05,08,08,24,163.70
2009,05,08,08,25,167.20
2009,05,08,08,26,169.00
2009,05,08,08,27,170.10
2009,05,08,08,28,169.90
2009,05,08,08,29,169.00
2009,05,08,08,30,167.70
2009,05,08,08,31,167.00
2009,05,08,08,32,167.00
2009,05,08,08,33,165.60
2009,05,08,08,34,163.40
2009,05,08,08,35,162.20
2009,05,08,08,36,160.40
2009,05,08,08,37,160.00
2009,05,08,08,38,158.30
2009,05,08,08,39,156.20
2009,05,08,08,40,155.20
2009,05,08,08,41,155.00
2009,05,08,08,42,153.10
2009,05,08,08,43,153.00
2009,05,08,08,44,151.00
2009,05,08,08,45,149.20
2009,05,08,08,46,148.00
2009,05,08,08,47,146.00
2009,05,08,08,48,146.00
2009,05,08,08,49,146.00
2009,05,08,08,50,148.00
2009,05,08,08,51,149.20
2009,05,08,08,52,153.20
2009,05,08,08,53,155.30
2009,05,08,08,54,158.20
2009,05,08,08,55,160.30
2009,05,08,08,56,162.20
2009,05,08,08,57,163.90
2009,05,08,08,58,167.00
2009,05,08,08,59,168.10
2009,05,08,09,00,172.60
2009,05,08,09,01,174.60
2009,05,08,09,02,176.00
2009,05,08,09,03,176.00
2009,05,08,09,04,176.70
2009,05,08,09,05,179.20
2009,05,08,09,06,182.90
2009,05,08,09,07,189.60
2009,05,08,09,08,199.00
2009,05,08,09,09,209.60
2009,05,08,09,10,220.90
2009,05,08,09,11,232.00
2009,05,08,09,12,240.50
2009,05,08,09,13,247.30
2009,05,08,09,14,252.80
2009,05,08,09,15,256.80
2009,05,08,09,16,261.70
2009,05,08,09,17,266.00
2009,05,08,09,18,268.30
2009,05,08,09,19,270.40
2009,05,08,09,20,271.00
2009,05,08,09,21,271.00
2009,05,08,09,22,271.00
2009,05,08,09,23,271.80
2009,05,08,09,24,273.70
2009,05,08,09,25,275.80
2009,05,08,09,26,277.70
2009,05,08,09,27,278.00
2009,05,08,09,28,274.80
2009,05,08,09,29,272.10
2009,05,08,09,30,269.20
2009,05,08,09,31,265.40
2009,05,08,09,32,264.00
2009,05,08,09,33,262.00
2009,05,08,09,34,260.00
2009,05,08,09,35,258.10
2009,05,08,09,36,257.00
2009,05,08,09,37,254.90
2009,05,08,09,38,253.00
2009,05,08,09,39,252.80
2009,05,08,09,40,249.80
2009,05,08,09,41,247.40
2009,05,08,09,42,242.40
2009,05,08,09,43,238.20
2009,05,08,09,44,232.40
2009,05,08,09,45,225.70
2009,05,08,09,46,219.70
2009,05,08,09,47,215.20
2009,05,08,09,48,212.40
2009,05,08,09,49,211.00
2009,05,08,09,50,211.00
2009,05,08,09,51,211.00
2009,05,08,09,52,211.00
2009,05,08,09,53,211.00
2009,05,08,09,54,211.00
2009,05,08,09,55,210.10
2009,05,08,09,56,208.00
2009,05,08,09,57,206.50
2009,05,08,09,58,206.00
2009,05,08,09,59,206.00
2009,05,08,10,00,206.00
2009,05,08,10,01,206.60
2009,05,08,10,02,208.10
2009,05,08,10,03,209.00
2009,05,08,10,04,211.70
2009,05,08,10,05,213.70
2009,05,08,10,06,216.90
2009,05,08,10,07,220.20
2009,05,08,10,08,223.60
2009,05,08,10,09,227.80
2009,05,08,10,10,232.90
2009,05,08,10,11,236.50
2009,05,08,10,12,241.50
2009,05,08,10,13,246.80
2009,05,08,10,14,251.80
2009,05,08,10,15,257.40
2009,05,08,10,16,264.60
2009,05,08,10,17,271.00
2009,05,08,10,18,279.00
2009,05,08,10,19,287.00
2009,05,08,10,20,292.00
2009,05,08,10,21,297.00
2009,05,08,10,22,302.00
2009,05,08,10,23,308.00
2009,05,08,10,24,315.20
2009,05,08,10,25,320.40
2009,05,08,10,26,328.00
2009,05,08,10,27,336.80
2009,05,08,10,28,344.20
2009,05,08,10,29,350.50
2009,05,08,10,30,354.00
2009,05,08,10,31,359.20
2009,05,08,10,32,360.90
2009,05,08,10,33,364.80
2009,05,08,10,34,367.60
2009,05,08,10,35,370.30
2009,05,08,10,36,374.00
2009,05,08,10,37,377.30
2009,05,08,10,38,380.30
2009,05,08,10,39,381.80
2009,05,08,10,40,383.80
2009,05,08,10,41,385.00
2009,05,08,10,42,385.00
2009,05,08,10,43,385.00
2009,05,08,10,44,385.00
2009,05,08,10,45,385.00
2009,05,08,10,46,382.80
2009,05,08,10,47,380.40
2009,05,08,10,48,378.80
2009,05,08,10,49,379.20
2009,05,08,10,50,381.70
2009,05,08,10,51,388.80
2009,05,08,10,52,397.40
2009,05,08,10,53,405.50
2009,05,08,10,54,410.20
2009,05,08,10,55,410.30
2009,05,08,10,56,410.00
2009,05,08,10,57,410.00
2009,05,08,10,58,410.80
2009,05,08,10,59,414.00
2009,05,08,11,00,425.60
2009,05,08,11,01,441.40
2009,05,08,11,02,467.70
2009,05,08,11,03,486.80
2009,05,08,11,04,506.90
2009,05,08,11,05,512.50
2009,05,08,11,06,506.70
2009,05,08,11,07,515.00
2009,05,08,11,08,568.00
2009,05,08,11,09,552.00
2009,05,08,11,10,534.00
2009,05,08,11,11,529.00
2009,05,08,11,12,540.50
2009,05,08,11,13,550.20
2009,05,08,11,14,550.00
2009,05,08,11,15,532.70
2009,05,08,11,16,520.00
2009,05,08,11,17,510.00
2009,05,08,11,18,512.00
2009,05,08,11,19,525.40
2009,05,08,11,20,549.60
2009,05,08,11,21,550.00
2009,05,08,11,22,534.60
2009,05,08,11,23,540.80
2009,05,08,11,24,544.30
2009,05,08,11,25,517.00
2009,05,08,11,26,481.20
2009,05,08,11,27,464.30
2009,05,08,11,28,452.10
2009,05,08,11,29,437.60
2009,05,08,11,30,416.30
2009,05,08,11,31,393.00
2009,05,08,11,32,375.60
2009,05,08,11,33,364.50
2009,05,08,11,34,356.80
2009,05,08,11,35,353.80
2009,05,08,11,36,358.50
2009,05,08,11,37,370.80
2009,05,08,11,38,374.80
2009,05,08,11,39,373.00
2009,05,08,11,40,373.70
2009,05,08,11,41,373.30
2009,05,08,11,42,369.90
2009,05,08,11,43,369.00
2009,05,08,11,44,367.60
2009,05,08,11,45,367.00
2009,05,08,11,46,368.60
2009,05,08,11,47,377.40
2009,05,08,11,48,388.90
2009,05,08,11,49,398.00
2009,05,08,11,50,403.70
2009,05,08,11,51,407.40
2009,05,08,11,52,415.00
2009,05,08,11,53,417.00
2009,05,08,11,54,420.00
2009,05,08,11,55,422.00
2009,05,08,11,56,422.00
2009,05,08,11,57,420.00
2009,05,08,11,58,417.00
2009,05,08,11,59,416.90
2009,05,08,12,00,414.80
2009,05,08,12,01,412.70
2009,05,08,12,02,409.20
2009,05,08,12,03,402.20
2009,05,08,12,04,394.80
2009,05,08,12,05,387.00
2009,05,08,12,06,381.40
2009,05,08,12,07,374.00
2009,05,08,12,08,364.80
2009,05,08,12,09,356.50
2009,05,08,12,10,346.30
2009,05,08,12,11,336.00
2009,05,08,12,12,326.70
2009,05,08,12,13,317.00
2009,05,08,12,14,308.90
2009,05,08,12,15,304.20
2009,05,08,12,16,298.60
2009,05,08,12,17,293.50
2009,05,08,12,18,290.00
2009,05,08,12,19,287.50
2009,05,08,12,20,286.10
2009,05,08,12,21,285.00
2009,05,08,12,22,286.20
2009,05,08,12,23,288.80
2009,05,08,12,24,291.30
2009,05,08,12,25,293.30
2009,05,08,12,26,292.70
2009,05,08,12,27,292.00
2009,05,08,12,28,288.40
2009,05,08,12,29,283.10
2009,05,08,12,30,278.90
2009,05,08,12,31,275.10
2009,05,08,12,32,272.30
2009,05,08,12,33,272.00
2009,05,08,12,34,272.00
2009,05,08,12,35,271.10
2009,05,08,12,36,271.00
2009,05,08,12,37,271.00
2009,05,08,12,38,271.00
2009,05,08,12,39,271.00
2009,05,08,12,40,271.00
2009,05,08,12,41,271.00
2009,05,08,12,42,272.00
2009,05,08,12,43,272.00
2009,05,08,12,44,274.00
2009,05,08,12,45,276.00
2009,05,08,12,46,278.00
2009,05,08,12,47,279.00
2009,05,08,12,48,279.20
2009,05,08,12,49,281.00
2009,05,08,12,50,281.20
2009,05,08,12,51,283.70
2009,05,08,12,52,287.50
2009,05,08,12,53,290.90
2009,05,08,12,54,294.70
2009,05,08,12,55,298.00
2009,05,08,12,56,302.40
2009,05,08,12,57,307.00
2009,05,08,12,58,309.70
2009,05,08,12,59,312.30
2009,05,08,13,00,315.40
2009,05,08,13,01,316.80
2009,05,08,13,02,319.80
2009,05,08,13,03,322.40
2009,05,08,13,04,325.00
2009,05,08,13,05,328.50
2009,05,08,13,06,333.30
2009,05,08,13,07,338.80
2009,05,08,13,08,343.80
2009,05,08,13,09,349.50
2009,05,08,13,10,353.80
2009,05,08,13,11,357.70
2009,05,08,13,12,359.70
2009,05,08,13,13,361.30
2009,05,08,13,14,363.30
2009,05,08,13,15,365.30
2009,05,08,13,16,366.70
2009,05,08,13,17,368.60
2009,05,08,13,18,372.30
2009,05,08,13,19,373.80
2009,05,08,13,20,377.30
2009,05,08,13,21,380.70
2009,05,08,13,22,384.60
2009,05,08,13,23,387.70
2009,05,08,13,24,389.90
2009,05,08,13,25,393.80
2009,05,08,13,26,394.00
2009,05,08,13,27,396.00
2009,05,08,13,28,396.00
2009,05,08,13,29,396.00
2009,05,08,13,30,396.00
2009,05,08,13,31,394.00
2009,05,08,13,32,396.10
2009,05,08,13,33,397.10
2009,05,08,13,34,399.40
2009,05,08,13,35,403.10
2009,05,08,13,36,404.40
2009,05,08,13,37,408.80
2009,05,08,13,38,413.70
2009,05,08,13,39,417.70
2009,05,08,13,40,420.90
2009,05,08,13,41,424.30
2009,05,08,13,42,426.10
2009,05,08,13,43,430.40
2009,05,08,13,44,435.00
2009,05,08,13,45,439.70
2009,05,08,13,46,444.20
2009,05,08,13,47,446.70
2009,05,08,13,48,447.20
2009,05,08,13,49,446.00
2009,05,08,13,50,444.70
2009,05,08,13,51,441.00
2009,05,08,13,52,439.00
2009,05,08,13,53,438.40
2009,05,08,13,54,438.60
2009,05,08,13,55,440.10
2009,05,08,13,56,443.10
2009,05,08,13,57,448.10
2009,05,08,13,58,452.80
2009,05,08,13,59,462.30
2009,05,08,14,00,475.30
2009,05,08,14,01,492.30
2009,05,08,14,02,512.60
2009,05,08,14,03,529.30
2009,05,08,14,04,544.90
2009,05,08,14,05,553.40
2009,05,08,14,06,555.00
2009,05,08,14,07,554.20
2009,05,08,14,08,554.80
2009,05,08,14,09,548.80
2009,05,08,14,10,540.90
2009,05,08,14,11,533.40
2009,05,08,14,12,522.60
2009,05,08,14,13,517.30
2009,05,08,14,14,517.00
2009,05,08,14,15,520.00
2009,05,08,14,16,524.00
2009,05,08,14,17,524.00
2009,05,08,14,18,520.00
2009,05,08,14,19,517.00
2009,05,08,14,20,519.60
2009,05,08,14,21,533.10
2009,05,08,14,22,573.00
2009,05,08,14,23,573.00
2009,05,08,14,24,575.30
2009,05,08,14,25,579.20
2009,05,08,14,26,531.70
2009,05,08,14,27,487.00
2009,05,08,14,28,475.00
2009,05,08,14,29,471.40
2009,05,08,14,30,461.70
2009,05,08,14,31,459.70
2009,05,08,14,32,454.00
2009,05,08,14,33,454.00
2009,05,08,14,34,487.00
2009,05,08,14,35,546.20
2009,05,08,14,36,593.20
2009,05,08,14,37,607.70
2009,05,08,14,38,573.00
2009,05,08,14,39,545.50
2009,05,08,14,40,548.20
2009,05,08,14,41,596.00
2009,05,08,14,42,635.00
2009,05,08,14,43,553.80
2009,05,08,14,44,469.00
2009,05,08,14,45,470.80
2009,05,08,14,46,472.70
2009,05,08,14,47,459.70
2009,05,08,14,48,440.20
2009,05,08,14,49,415.80
2009,05,08,14,50,401.50
2009,05,08,14,51,388.60
2009,05,08,14,52,378.00
2009,05,08,14,53,366.00
2009,05,08,14,54,362.40
2009,05,08,14,55,368.90
2009,05,08,14,56,425.20
2009,05,08,14,57,432.00
2009,05,08,14,58,432.00
2009,05,08,14,59,374.40
2009,05,08,15,00,360.00
2009,05,08,15,01,348.00
2009,05,08,15,02,346.00
2009,05,08,15,03,354.50
2009,05,08,15,04,356.90
2009,05,08,15,05,355.00
2009,05,08,15,06,357.50
2009,05,08,15,07,366.10
2009,05,08,15,08,368.00
2009,05,08,15,09,377.60
2009,05,08,15,10,393.00
2009,05,08,15,11,426.30
2009,05,08,15,12,473.00
2009,05,08,15,13,491.00
2009,05,08,15,14,554.00
2009,05,08,15,15,554.00
2009,05,08,15,16,517.90
2009,05,08,15,17,438.40
2009,05,08,15,18,486.00
2009,05,08,15,19,516.50
2009,05,08,15,20,527.00
2009,05,08,15,21,527.00
2009,05,08,15,22,460.80
2009,05,08,15,23,363.80
2009,05,08,15,24,344.70
2009,05,08,15,25,368.80
2009,05,08,15,26,366.50
2009,05,08,15,27,327.50
2009,05,08,15,28,324.10
2009,05,08,15,29,338.90
2009,05,08,15,30,337.50
2009,05,08,15,31,331.70
2009,05,08,15,32,353.10
2009,05,08,15,33,332.10
2009,05,08,15,34,294.60
2009,05,08,15,35,287.00
2009,05,08,15,36,275.40
2009,05,08,15,37,265.60
2009,05,08,15,38,264.00
2009,05,08,15,39,270.20
2009,05,08,15,40,350.30
2009,05,08,15,41,286.80
2009,05,08,15,42,271.00
2009,05,08,15,43,269.20
2009,05,08,15,44,267.20
2009,05,08,15,45,265.10
2009,05,08,15,46,264.10
2009,05,08,15,47,264.00
2009,05,08,15,48,267.00
2009,05,08,15,49,267.00
2009,05,08,15,50,264.00
2009,05,08,15,51,258.00
2009,05,08,15,52,255.00
2009,05,08,15,53,253.00
2009,05,08,15,54,251.00
2009,05,08,15,55,250.40
2009,05,08,15,56,245.00
2009,05,08,15,57,236.50
2009,05,08,15,58,233.30
2009,05,08,15,59,230.00
2009,05,08,16,00,229.40
2009,05,08,16,01,225.70
2009,05,08,16,02,219.80
2009,05,08,16,03,216.40
2009,05,08,16,04,218.50
2009,05,08,16,05,221.40
2009,05,08,16,06,226.70
2009,05,08,16,07,231.60
2009,05,08,16,08,234.80
2009,05,08,16,09,237.20
2009,05,08,16,10,240.80
2009,05,08,16,11,244.30
2009,05,08,16,12,247.00
2009,05,08,16,13,252.50
2009,05,08,16,14,262.30
2009,05,08,16,15,265.50
2009,05,08,16,16,268.40
2009,05,08,16,17,273.20
2009,05,08,16,18,270.90
2009,05,08,16,19,264.70
2009,05,08,16,20,258.70
2009,05,08,16,21,254.30
2009,05,08,16,22,249.40
2009,05,08,16,23,246.60
2009,05,08,16,24,243.80
2009,05,08,16,25,241.40
2009,05,08,16,26,239.60
2009,05,08,16,27,235.10
2009,05,08,16,28,228.80
2009,05,08,16,29,219.00
2009,05,08,16,30,213.60
2009,05,08,16,31,209.20
2009,05,08,16,32,207.10
2009,05,08,16,33,206.10
2009,05,08,16,34,204.00
2009,05,08,16,35,202.00
2009,05,08,16,36,202.00
2009,05,08,16,37,206.00
2009,05,08,16,38,207.00
2009,05,08,16,39,208.90
2009,05,08,16,40,211.00
2009,05,08,16,41,217.00
2009,05,08,16,42,237.00
2009,05,08,16,43,237.00
2009,05,08,16,44,284.30
2009,05,08,16,45,657.00
2009,05,08,16,46,611.80
2009,05,08,16,47,655.10
2009,05,08,16,48,650.00
2009,05,08,16,49,640.30
2009,05,08,16,50,629.10
2009,05,08,16,51,621.40
2009,05,08,16,52,612.50
2009,05,08,16,53,604.50
2009,05,08,16,54,600.00
2009,05,08,16,55,597.20
2009,05,08,16,56,595.20
2009,05,08,16,57,592.70
2009,05,08,16,58,590.10
2009,05,08,16,59,587.10
2009,05,08,17,00,582.50
2009,05,08,17,01,580.00
2009,05,08,17,02,580.00
2009,05,08,17,03,580.00
2009,05,08,17,04,577.40
2009,05,08,17,05,571.90
2009,05,08,17,06,568.90
2009,05,08,17,07,566.70
2009,05,08,17,08,564.80
2009,05,08,17,09,562.20
2009,05,08,17,10,555.90
2009,05,08,17,11,549.30
2009,05,08,17,12,547.20